Las Vegas, NV

6:59 PM PDT on July 23, 2017 (GMT -0700)
McCarran International

Weather History for KLAS - October, 2013

Change the Weather History Date:

Thursday, October 31, 2013

  Actual Average Record
Temperature  
Mean Temperature 58 °F 63 °F  
Max Temperature 68 °F 74 °F 86 °F (1988)
Min Temperature 48 °F 53 °F 30 °F (1971)
Degree Days  
Heating Degree Days 7 3  
Month to date heating degree days 47 36  
Since 1 July heating degree days 47 39  
Cooling Degree Days 0 2  
Month to date cooling degree days 103 179  
Year to date cooling degree days 3761 3556  
Growing Degree Days 8 (Base 50)    
Moisture  
Dew Point 26 °F    
Average Humidity 32    
Maximum Humidity 42    
Minimum Humidity 21    
Precipitation  
Precipitation 0.00 in 0.01 in 0.25 in (1987)
Month to date precipitation T 0.27  
Year to date precipitation 1.54 3.33  
Snow  
Snow 0.00 in 0.00 in T in (1956)
Month to date snowfall 0.0 0.0  
Since 1 July snowfall 0.0 0.0  
Since 1 September snowfall 0.0 0.0  
Snow Depth 0.00 in    
Sea Level Pressure  
Sea Level Pressure 30.08 in    
Wind  
Wind Speed 5 mph (SSW)    
Max Wind Speed 12 mph    
Max Gust Speed 14 mph    
Visibility 10 miles    
Events      
T = Trace of Precipitation, MM = Missing Value Source: NWS Daily Summary

Daily Weather History Graph

Daily Weather History Graph

Search for Another Location

Airport or City:

Trip Planner

Search our weather history database for the weather conditions in past years. The results will help you decide how hot, cold, wet, or windy it might be!

Date:

Astronomy

Oct. 31, 2013 Rise Set
Actual Time 7:02 AM PDT 5:45 PM PDT
Civil Twilight 6:36 AM PDT 6:11 PM PDT
Nautical Twilight 6:05 AM PDT 6:42 PM PDT
Astronomical Twilight 5:35 AM PDT 7:11 PM PDT
Moon 4:01 AM PDT (10/31) 4:01 PM PDT (10/31)
Length of Visible Light 11h 35m
Length of Day
10h 42m
Waning Crescent, 9% of the Moon is Illuminated
Oct 31
Waning Crescent
Nov 3
New
Nov 9
First Quarter
Nov 17
Full
Nov 25
Last Quarter

Hourly Weather History & Observations

Time (PDT) Temp. Dew Point Humidity Pressure Visibility Wind Dir Wind Speed Gust Speed Precip Events Conditions
12:56 AM 52.0 °F 26.1 °F 37% 30.03 in 10.0 mi SSW 10.4 mph - N/A   Clear
1:56 AM 50.0 °F 26.1 °F 39% 30.05 in 10.0 mi SSW 8.1 mph - N/A   Clear
2:56 AM 50.0 °F 26.1 °F 39% 30.04 in 10.0 mi SSW 8.1 mph - N/A   Clear
3:56 AM 50.0 °F 26.1 °F 39% 30.04 in 10.0 mi SSW 6.9 mph - N/A   Clear
4:56 AM 48.0 °F 25.0 °F 41% 30.06 in 10.0 mi SSW 6.9 mph - N/A   Clear
5:56 AM 48.9 °F 26.1 °F 41% 30.07 in 10.0 mi SW 4.6 mph - N/A   Clear
6:56 AM 48.0 °F 27.0 °F 44% 30.09 in 10.0 mi SSW 8.1 mph - N/A   Clear
7:56 AM 50.0 °F 27.0 °F 41% 30.12 in 10.0 mi South 6.9 mph - N/A   Clear
8:56 AM 55.0 °F 26.1 °F 33% 30.14 in 10.0 mi South 5.8 mph - N/A   Clear
9:56 AM 57.9 °F 25.0 °F 28% 30.14 in 10.0 mi Calm Calm - N/A   Clear
10:56 AM 61.0 °F 26.1 °F 26% 30.14 in 10.0 mi Calm Calm - N/A   Clear
11:56 AM 63.0 °F 26.1 °F 25% 30.12 in 10.0 mi Calm Calm - N/A   Clear
12:56 PM 64.0 °F 27.0 °F 25% 30.09 in 10.0 mi South 5.8 mph - N/A   Clear
1:56 PM 66.0 °F 27.0 °F 23% 30.08 in 10.0 mi Calm Calm - N/A   Clear
2:56 PM 68.0 °F 26.1 °F 21% 30.06 in 10.0 mi NE 3.5 mph - N/A   Clear
3:56 PM 68.0 °F 26.1 °F 21% 30.05 in 10.0 mi Calm Calm - N/A   Clear
4:56 PM 66.9 °F 26.1 °F 21% 30.04 in 10.0 mi SSW 5.8 mph - N/A   Clear
5:56 PM 64.9 °F 27.0 °F 24% 30.04 in 10.0 mi SSE 5.8 mph - N/A   Clear
6:56 PM 64.0 °F 28.0 °F 26% 30.05 in 10.0 mi South 5.8 mph - N/A   Clear
7:56 PM 62.1 °F 28.9 °F 29% 30.06 in 10.0 mi SSW 8.1 mph - N/A   Clear
8:56 PM 59.0 °F 27.0 °F 29% 30.07 in 10.0 mi SW 10.4 mph - N/A   Clear
9:56 PM 59.0 °F 27.0 °F 29% 30.08 in 10.0 mi SW 8.1 mph - N/A   Clear
10:56 PM 55.9 °F 26.1 °F 32% 30.08 in 10.0 mi South 6.9 mph - N/A   Clear
11:56 PM 55.0 °F 26.1 °F 33% 30.09 in 10.0 mi SSW 6.9 mph - N/A   Clear